contact:dominique.lefevre@mio.osupytheas.fr, maurice.libes@osupytheas.fr, didier.mallarino@osupytheas.fr
Project:EMSO http://www.emso-fr.org/EMSO-France
Depth: 2436.0 m
Title:EMSO Ligure Ouest : Data MII capteur AQUADOPP
Date,Latitude,Longitude,X_East,Y_North,Z_Up,Amplitude_X,Amplitude_Y,Amplitude_Z,Batterie,SoundSpeed,Heading,Pitch,Roll,Pressure,TIS,Speed,Direction
, degrees North, degrees East, m.s-1, m.s-1,m.s-1, 1, 1, 1, Volt, m.s-1, degree, degree, degree, dbar, degree_C, m.s-1, degree
2023-09-06T00:04:03,42.805,6.029,-0.008,0.02,0.023,105.0,103.0,103.0,13.4,1505.2,328.7,-0.7,1.7,2471.581,13.29,0.021,338.2
2023-09-06T00:07:03,42.805,6.029,-0.031,0.006,-0.021,103.0,104.0,102.0,13.3,1505.2,335.1,-0.8,1.8,2471.568,13.29,0.031,281.0
2023-09-06T00:10:03,42.805,6.029,0.013,0.0,-0.033,104.0,104.0,102.0,13.3,1505.2,346.2,-0.8,1.8,2471.579,13.29,0.013,90.0
2023-09-06T00:13:03,42.805,6.029,-0.023,0.012,-0.016,102.0,102.0,103.0,13.4,1505.2,337.3,-0.8,1.8,2471.553,13.29,0.025,297.6
2023-09-06T00:16:03,42.805,6.029,0.0,0.006,-0.044,104.0,104.0,103.0,13.3,1505.2,354.5,-0.8,1.8,2471.542,13.29,0.006,0.0
2023-09-06T00:19:03,42.805,6.029,-0.018,0.023,0.005,104.0,104.0,102.0,13.3,1505.2,349.2,-0.8,1.8,2471.554,13.29,0.029,322.0
2023-09-06T00:22:03,42.805,6.029,0.006,0.004,-0.011,106.0,104.0,103.0,13.4,1505.2,331.4,-0.8,1.8,2471.566,13.29,0.007,56.3
2023-09-06T00:25:03,42.805,6.029,-0.004,0.034,0.014,104.0,103.0,102.0,13.4,1505.2,346.5,-0.8,1.8,2471.559,13.29,0.034,353.3
2023-09-06T00:28:03,42.805,6.029,-0.007,0.003,0.009,104.0,104.0,101.0,13.4,1505.2,333.4,-0.7,1.8,2471.561,13.29,0.007,293.2
2023-09-06T00:31:03,42.805,6.029,-0.013,0.012,0.006,104.0,105.0,101.0,13.4,1505.2,335.2,-0.8,1.8,2471.562,13.29,0.017,312.7
2023-09-06T00:34:03,42.805,6.029,-0.011,0.022,-0.019,103.0,103.0,102.0,13.4,1505.2,333.8,-0.8,1.8,2471.554,13.29,0.024,333.4
2023-09-06T00:37:03,42.805,6.029,-0.006,-0.005,0.009,105.0,104.0,101.0,13.4,1505.2,335.6,-0.8,1.8,2471.546,13.29,0.007,230.2
2023-09-06T00:40:03,42.805,6.029,-0.007,0.017,0.003,105.0,104.0,101.0,13.4,1505.2,346.2,-0.8,1.8,2471.525,13.29,0.018,337.6
2023-09-06T00:43:03,42.805,6.029,-0.022,0.002,-0.007,103.0,105.0,102.0,13.4,1505.2,349.3,-0.8,1.8,2471.54,13.29,0.022,275.2
2023-09-06T00:46:03,42.805,6.029,-0.014,0.016,-0.025,103.0,104.0,103.0,13.3,1505.2,327.1,-0.8,1.8,2471.552,13.29,0.021,318.8
2023-09-06T00:49:03,42.805,6.029,0.001,0.037,-0.01,105.0,104.0,101.0,13.3,1505.2,352.8,-0.7,1.8,2471.526,13.29,0.037,1.5
2023-09-06T00:52:03,42.805,6.029,-0.034,0.005,-0.032,102.0,104.0,103.0,13.4,1505.2,334.8,-0.8,1.8,2471.498,13.29,0.034,278.4
2023-09-06T00:55:03,42.805,6.029,-0.004,0.011,-0.032,103.0,104.0,102.0,13.4,1505.2,355.6,-0.7,1.8,2471.5,13.29,0.011,340.0
2023-09-06T00:58:03,42.805,6.029,-0.009,0.003,-0.014,104.0,103.0,103.0,13.4,1505.2,325.1,-0.8,1.8,2471.467,13.29,0.009,288.4
2023-09-06T01:04:02,42.805,6.029,0.002,0.013,0.008,104.0,105.0,102.0,13.4,1505.2,349.3,-0.8,1.8,2471.595,13.29,0.013,8.7
2023-09-06T01:07:03,42.805,6.029,-0.014,0.009,-0.017,104.0,104.0,102.0,13.4,1505.2,340.3,-0.8,1.8,2471.575,13.29,0.016,302.7
2023-09-06T01:10:03,42.805,6.029,-0.014,-0.009,-0.011,104.0,104.0,102.0,13.4,1505.2,326.3,-0.8,1.8,2471.567,13.29,0.016,237.3
2023-09-06T01:13:03,42.805,6.029,-0.015,0.018,0.004,104.0,104.0,101.0,13.4,1505.2,334.8,-0.8,1.8,2471.568,13.29,0.023,320.2
2023-09-06T01:16:03,42.805,6.029,-0.018,0.005,-0.011,104.0,104.0,101.0,13.3,1505.2,340.8,-0.8,1.8,2471.556,13.29,0.018,285.5
2023-09-06T01:19:03,42.805,6.029,-0.021,0.018,-0.001,104.0,105.0,101.0,13.4,1505.2,332.6,-0.8,1.9,2471.54,13.29,0.027,310.6
2023-09-06T01:22:03,42.805,6.029,-0.022,0.009,-0.035,103.0,104.0,102.0,13.4,1505.2,331.3,-0.7,1.8,2471.52,13.29,0.023,292.2
2023-09-06T01:25:03,42.805,6.029,-0.023,0.01,-0.005,105.0,105.0,101.0,13.3,1505.2,329.8,-0.8,1.8,2471.514,13.29,0.025,293.5
2023-09-06T01:28:03,42.805,6.029,-0.007,-0.002,-0.023,104.0,102.0,103.0,13.4,1505.2,340.4,-0.7,1.8,2471.531,13.29,0.007,254.1
2023-09-06T01:31:03,42.805,6.029,-0.006,0.017,-0.017,103.0,104.0,101.0,13.3,1505.2,339.5,-0.8,1.8,2471.548,13.29,0.018,340.6
2023-09-06T01:34:03,42.805,6.029,-0.012,-0.004,0.008,104.0,102.0,101.0,13.4,1505.2,335.6,-0.8,1.8,2471.526,13.29,0.012,251.6
2023-09-06T01:37:03,42.805,6.029,-0.001,-0.002,-0.011,104.0,104.0,101.0,13.4,1505.2,335.6,-0.8,1.8,2471.535,13.29,0.002,206.6
2023-09-06T01:40:02,42.805,6.029,-0.004,0.019,0.0,105.0,104.0,101.0,13.3,1505.2,331.4,-0.8,1.8,2471.517,13.29,0.019,348.1
2023-09-06T01:43:03,42.805,6.029,-0.008,0.015,-0.025,106.0,103.0,103.0,13.4,1505.2,337.0,-0.8,1.8,2471.504,13.29,0.017,331.9
2023-09-06T01:46:02,42.805,6.029,-0.029,0.018,0.036,104.0,104.0,102.0,13.3,1505.2,329.2,-0.7,1.8,2471.512,13.29,0.034,301.8
2023-09-06T01:49:02,42.805,6.029,-0.01,0.004,0.007,106.0,103.0,103.0,13.4,1505.2,332.5,-0.8,1.8,2471.517,13.29,0.01,291.8
2023-09-06T01:52:03,42.805,6.029,-0.008,0.021,-0.002,105.0,103.0,102.0,13.3,1505.2,353.6,-0.7,1.9,2471.488,13.29,0.022,339.1
2023-09-06T01:55:03,42.805,6.029,-0.043,0.001,-0.016,103.0,104.0,101.0,13.3,1505.2,323.3,-0.7,1.8,2471.498,13.29,0.043,271.3
2023-09-06T01:58:02,42.805,6.029,-0.017,0.024,0.002,103.0,104.0,102.0,13.4,1505.2,332.5,-0.8,1.8,2471.495,13.29,0.029,324.7
2023-09-06T02:04:02,42.805,6.029,-0.011,0.005,-0.016,103.0,103.0,102.0,13.3,1505.2,333.4,-0.8,1.8,2471.536,13.29,0.012,294.4
2023-09-06T02:07:02,42.805,6.029,0.0,0.019,-0.023,103.0,103.0,102.0,13.4,1505.2,353.0,-0.8,1.8,2471.555,13.29,0.019,0.0
2023-09-06T02:10:02,42.805,6.029,0.003,-0.009,-0.021,104.0,103.0,101.0,13.4,1505.2,343.4,-0.7,1.8,2471.577,13.29,0.009,161.6
2023-09-06T02:13:02,42.805,6.029,-0.021,0.002,-0.006,105.0,103.0,102.0,13.4,1505.2,331.0,-0.8,1.8,2471.535,13.29,0.021,275.4
2023-09-06T02:16:02,42.805,6.029,-0.011,0.013,0.009,104.0,104.0,101.0,13.4,1505.2,325.1,-0.8,1.8,2471.494,13.29,0.017,319.8
2023-09-06T02:19:02,42.805,6.029,-0.018,0.007,-0.014,104.0,104.0,101.0,13.4,1505.2,329.3,-0.7,1.8,2471.544,13.29,0.019,291.2
2023-09-06T02:22:02,42.805,6.029,0.004,-0.006,-0.014,106.0,106.0,101.0,13.3,1505.2,350.3,-0.8,1.8,2471.542,13.29,0.007,146.3
2023-09-06T02:25:02,42.805,6.029,-0.01,0.008,-0.022,104.0,103.0,102.0,13.3,1505.2,332.9,-0.8,1.8,2471.505,13.29,0.012,308.7
2023-09-06T02:28:02,42.805,6.029,-0.003,0.018,-0.003,104.0,103.0,102.0,13.4,1505.2,351.5,-0.8,1.8,2471.518,13.29,0.018,350.5
2023-09-06T02:31:02,42.805,6.029,0.0,0.014,-0.022,105.0,104.0,101.0,13.4,1505.2,350.9,-0.8,1.8,2471.504,13.29,0.014,0.0
2023-09-06T02:34:02,42.805,6.029,-0.001,0.022,0.006,104.0,105.0,102.0,13.4,1505.2,348.4,-0.8,1.8,2471.556,13.29,0.022,357.4
2023-09-06T02:37:02,42.805,6.029,-0.01,0.002,-0.023,103.0,104.0,102.0,13.3,1505.2,335.4,-0.8,1.8,2471.492,13.29,0.01,281.3
2023-09-06T02:40:02,42.805,6.029,-0.001,0.012,-0.04,104.0,104.0,101.0,13.4,1505.2,333.8,-0.8,1.8,2471.488,13.29,0.012,355.2
2023-09-06T02:43:02,42.805,6.029,-0.028,0.003,-0.011,104.0,103.0,102.0,13.4,1505.2,330.2,-0.7,1.9,2471.488,13.29,0.028,276.1
2023-09-06T02:46:02,42.805,6.029,0.008,0.002,-0.014,105.0,104.0,101.0,13.4,1505.2,332.9,-0.8,1.8,2471.47,13.29,0.008,76.0
2023-09-06T02:49:02,42.805,6.029,-0.005,-0.014,-0.02,104.0,104.0,102.0,13.3,1505.2,330.7,-0.7,1.8,2471.513,13.29,0.014,199.6
2023-09-06T02:52:02,42.805,6.029,-0.026,-0.001,-0.027,104.0,103.0,103.0,13.3,1505.2,331.1,-0.8,1.8,2471.5,13.29,0.026,267.8
2023-09-06T02:55:02,42.805,6.029,-0.017,-0.001,-0.036,103.0,104.0,101.0,13.4,1505.2,332.1,-0.8,1.8,2471.481,13.29,0.017,266.6
2023-09-06T02:58:02,42.805,6.029,-0.001,-0.002,-0.026,104.0,105.0,102.0,13.3,1505.2,337.8,-0.8,1.8,2471.482,13.29,0.002,206.6
2023-09-06T03:04:02,42.805,6.029,0.001,-0.009,-0.038,103.0,104.0,103.0,13.4,1505.2,343.7,-0.7,1.8,2471.516,13.29,0.009,173.7
2023-09-06T03:07:02,42.805,6.029,-0.005,-0.004,-0.021,104.0,103.0,102.0,13.4,1505.2,335.6,-0.8,1.8,2471.475,13.29,0.006,231.3
2023-09-06T03:10:02,42.805,6.029,-0.006,0.004,-0.004,104.0,103.0,102.0,13.3,1505.2,336.0,-0.8,1.8,2471.528,13.29,0.007,303.7
2023-09-06T03:13:03,42.805,6.029,-0.006,0.007,-0.008,104.0,103.0,102.0,13.4,1505.2,335.2,-0.8,1.9,2471.534,13.29,0.009,319.4
2023-09-06T03:16:03,42.805,6.029,-0.017,0.01,-0.015,103.0,103.0,102.0,13.3,1505.2,346.2,-0.8,1.8,2471.522,13.29,0.019,300.5
2023-09-06T03:19:03,42.805,6.029,-0.014,-0.006,-0.007,104.0,104.0,101.0,13.4,1505.2,336.3,-0.7,1.8,2471.496,13.29,0.015,246.8
2023-09-06T03:22:02,42.805,6.029,-0.004,0.0,-0.039,105.0,103.0,101.0,13.3,1505.2,338.7,-0.8,1.8,2471.444,13.29,0.004,270.0
2023-09-06T03:25:03,42.805,6.029,0.003,0.006,-0.009,105.0,103.0,102.0,13.4,1505.2,352.1,-0.8,1.8,2471.492,13.29,0.006,26.6
2023-09-06T03:28:03,42.805,6.029,-0.012,-0.007,-0.014,104.0,103.0,103.0,13.4,1505.2,355.6,-0.8,1.8,2471.496,13.29,0.013,239.7
2023-09-06T03:31:03,42.805,6.029,-0.009,0.01,-0.017,105.0,103.0,102.0,13.3,1505.2,350.5,-0.7,1.8,2471.47,13.29,0.013,318.0
2023-09-06T03:34:03,42.805,6.029,-0.007,-0.013,-0.009,105.0,104.0,102.0,13.3,1505.2,333.4,-0.8,1.8,2471.481,13.29,0.014,208.3
2023-09-06T03:37:02,42.805,6.029,-0.001,0.007,-0.038,104.0,104.0,102.0,13.3,1505.2,331.4,-0.8,1.8,2471.458,13.29,0.007,351.9
2023-09-06T03:40:03,42.805,6.029,-0.014,0.006,-0.022,105.0,103.0,102.0,13.3,1505.2,326.3,-0.7,1.8,2471.492,13.29,0.015,293.2
2023-09-06T03:43:03,42.805,6.029,-0.005,-0.013,-0.038,104.0,103.0,101.0,13.4,1505.2,334.2,-0.7,1.8,2471.457,13.29,0.013,201.0
2023-09-06T03:46:02,42.805,6.029,0.007,-0.022,-0.02,104.0,104.0,101.0,13.4,1505.2,338.0,-0.7,1.9,2471.472,13.29,0.023,162.4
2023-09-06T03:49:03,42.805,6.029,-0.005,-0.005,-0.054,103.0,104.0,102.0,13.3,1505.2,354.7,-0.7,1.8,2471.476,13.29,0.007,225.0
2023-09-06T03:52:02,42.805,6.029,-0.013,-0.003,-0.041,103.0,102.0,103.0,13.3,1505.2,333.9,-0.8,1.8,2471.472,13.29,0.013,257.0
2023-09-06T03:55:03,42.805,6.029,-0.016,0.008,0.001,104.0,104.0,102.0,13.4,1505.2,339.9,-0.8,1.8,2471.466,13.29,0.017,296.6
2023-09-06T03:58:03,42.805,6.029,-0.018,-0.007,-0.033,103.0,103.0,102.0,13.4,1505.2,338.7,-0.8,1.8,2471.483,13.29,0.019,248.8
2023-09-06T04:04:02,42.805,6.029,-0.007,-0.002,0.005,103.0,104.0,102.0,13.4,1505.2,331.0,-0.8,1.8,2471.532,13.29,0.007,254.1
2023-09-06T04:07:02,42.805,6.029,-0.006,-0.004,-0.051,104.0,105.0,102.0,13.4,1505.2,341.9,-0.8,1.8,2471.506,13.29,0.007,236.3
2023-09-06T04:10:03,42.805,6.029,-0.002,-0.014,-0.026,103.0,104.0,102.0,13.4,1505.2,332.5,-0.8,1.8,2471.512,13.29,0.014,188.1
2023-09-06T04:13:03,42.805,6.029,-0.01,-0.01,0.005,104.0,103.0,102.0,13.4,1505.2,354.2,-0.8,1.8,2471.492,13.29,0.014,225.0
2023-09-06T04:16:03,42.805,6.029,-0.003,0.004,-0.02,104.0,104.0,101.0,13.4,1505.2,354.8,-0.8,1.8,2471.473,13.29,0.005,323.1
2023-09-06T04:19:03,42.805,6.029,-0.023,0.014,0.008,103.0,104.0,101.0,13.4,1505.2,331.3,-0.8,1.8,2471.482,13.29,0.026,301.3
2023-09-06T04:22:02,42.805,6.029,0.001,-0.006,-0.051,104.0,104.0,102.0,13.3,1505.2,334.4,-0.8,1.8,2471.474,13.29,0.006,170.5
2023-09-06T04:25:03,42.805,6.029,-0.002,-0.014,-0.006,104.0,103.0,103.0,13.3,1505.2,336.9,-0.7,1.8,2471.499,13.29,0.014,188.1
2023-09-06T04:28:03,42.805,6.029,-0.002,0.0,0.011,103.0,103.0,102.0,13.3,1505.2,336.1,-0.8,1.8,2471.491,13.29,0.002,270.0
2023-09-06T04:31:03,42.805,6.029,-0.008,0.0,-0.029,104.0,104.0,103.0,13.4,1505.2,343.3,-0.8,1.8,2471.461,13.29,0.008,270.0
2023-09-06T04:34:03,42.805,6.029,0.0,-0.021,-0.001,102.0,103.0,103.0,13.4,1505.2,339.0,-0.7,1.8,2471.459,13.29,0.021,180.0
2023-09-06T04:37:02,42.805,6.029,0.005,-0.022,-0.031,104.0,104.0,101.0,13.4,1505.2,342.9,-0.8,1.8,2471.479,13.29,0.022,167.2
2023-09-06T04:40:03,42.805,6.029,-0.003,-0.036,-0.027,104.0,103.0,102.0,13.3,1505.2,343.0,-0.8,1.8,2471.428,13.29,0.036,184.8
2023-09-06T04:43:03,42.805,6.029,-0.028,-0.013,0.002,103.0,104.0,103.0,13.3,1505.2,323.6,-0.7,1.8,2471.474,13.29,0.03,245.1
2023-09-06T04:46:03,42.805,6.029,-0.017,0.013,-0.027,104.0,103.0,102.0,13.3,1505.2,330.7,-0.8,1.8,2471.445,13.29,0.021,307.4
2023-09-06T04:49:03,42.805,6.029,0.004,-0.019,-0.022,104.0,103.0,102.0,13.4,1505.2,333.9,-0.7,1.8,2471.46,13.29,0.019,168.1
2023-09-06T04:52:02,42.805,6.029,-0.023,-0.005,-0.069,104.0,104.0,102.0,13.3,1505.2,337.9,-0.8,1.8,2471.441,13.29,0.023,257.7
2023-09-06T04:55:03,42.805,6.029,0.012,-0.005,-0.03,105.0,103.0,102.0,13.3,1505.2,323.7,-0.8,1.8,2471.473,13.29,0.013,112.6
2023-09-06T04:58:03,42.805,6.029,-0.02,-0.01,-0.003,103.0,104.0,102.0,13.3,1505.2,324.4,-0.8,1.8,2471.438,13.29,0.022,243.4
2023-09-06T05:04:02,42.805,6.029,-0.018,0.012,-0.029,103.0,102.0,103.0,13.4,1505.2,335.4,-0.8,1.8,2471.468,13.29,0.021,303.7
2023-09-06T05:07:02,42.805,6.029,-0.006,-0.034,-0.027,105.0,104.0,102.0,13.4,1505.2,347.6,-0.8,1.8,2471.498,13.29,0.034,190.0
2023-09-06T05:10:03,42.805,6.029,-0.003,-0.012,-0.043,104.0,103.0,102.0,13.4,1505.2,345.2,-0.7,1.8,2471.515,13.29,0.012,194.0
2023-09-06T05:13:03,42.805,6.029,0.0,-0.017,-0.001,104.0,103.0,102.0,13.4,1505.2,333.4,-0.8,1.8,2471.482,13.29,0.017,180.0
2023-09-06T05:16:03,42.805,6.029,-0.011,-0.001,-0.017,103.0,103.0,102.0,13.4,1505.2,339.6,-0.7,1.8,2471.473,13.29,0.011,264.8
2023-09-06T05:19:03,42.805,6.029,-0.035,-0.008,-0.013,104.0,104.0,102.0,13.4,1505.2,331.5,-0.7,1.8,2471.43,13.29,0.035,257.1
2023-09-06T05:22:02,42.805,6.029,-0.015,-0.017,-0.039,105.0,103.0,102.0,13.4,1505.2,326.3,-0.8,1.8,2471.462,13.29,0.022,221.4
2023-09-06T05:25:03,42.805,6.029,0.007,-0.015,-0.021,104.0,104.0,102.0,13.4,1505.2,328.2,-0.8,1.8,2471.488,13.29,0.016,155.0
2023-09-06T05:28:03,42.805,6.029,0.01,-0.008,-0.02,104.0,103.0,102.0,13.4,1505.2,338.2,-0.8,1.8,2471.46,13.29,0.012,128.7
2023-09-06T05:31:03,42.805,6.029,0.0,-0.018,-0.037,104.0,103.0,101.0,13.3,1505.2,341.9,-0.8,1.8,2471.441,13.29,0.018,180.0
2023-09-06T05:34:03,42.805,6.029,-0.014,-0.019,-0.03,103.0,103.0,103.0,13.4,1505.2,331.1,-0.8,1.8,2471.448,13.29,0.023,216.4
2023-09-06T05:37:02,42.805,6.029,-0.021,-0.022,-0.041,104.0,103.0,102.0,13.4,1505.2,349.0,-0.8,1.8,2471.453,13.29,0.03,223.7
2023-09-06T05:40:03,42.805,6.029,0.005,-0.015,-0.017,103.0,102.0,101.0,13.4,1505.2,327.1,-0.7,1.8,2471.442,13.29,0.015,161.6
2023-09-06T05:43:03,42.805,6.029,-0.001,-0.001,-0.036,103.0,103.0,101.0,13.3,1505.2,344.0,-0.7,1.8,2471.489,13.29,0.001,225.0
2023-09-06T05:46:03,42.805,6.029,-0.019,-0.016,0.0,104.0,103.0,102.0,13.3,1505.2,347.1,-0.8,1.8,2471.411,13.29,0.024,229.9
2023-09-06T05:49:03,42.805,6.029,0.022,-0.04,-0.009,103.0,102.0,102.0,13.4,1505.2,329.8,-0.8,1.8,2471.433,13.29,0.045,151.2
2023-09-06T05:52:02,42.805,6.029,0.005,-0.026,-0.021,103.0,103.0,102.0,13.4,1505.2,340.1,-0.8,1.8,2471.454,13.29,0.026,169.1
2023-09-06T05:55:03,42.805,6.029,-0.012,-0.008,-0.057,104.0,102.0,101.0,13.4,1505.2,338.2,-0.8,1.8,2471.411,13.29,0.014,236.3
2023-09-06T05:58:03,42.805,6.029,-0.006,-0.023,-0.012,102.0,104.0,102.0,13.4,1505.2,331.6,-0.8,1.8,2471.443,13.29,0.023,194.6
2023-09-06T06:04:02,42.805,6.029,-0.024,0.0,-0.018,103.0,103.0,101.0,13.4,1505.2,340.1,-0.8,1.8,2471.499,13.28,0.024,270.0
2023-09-06T06:07:02,42.805,6.029,-0.022,-0.023,-0.036,104.0,103.0,102.0,13.4,1505.2,354.6,-0.8,1.8,2471.5,13.29,0.031,223.7
2023-09-06T06:10:03,42.805,6.029,-0.005,-0.026,-0.053,104.0,103.0,102.0,13.4,1505.2,323.4,-0.8,1.8,2471.483,13.29,0.026,190.9
2023-09-06T06:13:03,42.805,6.029,-0.019,-0.012,-0.01,103.0,103.0,101.0,13.4,1505.2,330.1,-0.7,1.8,2471.494,13.29,0.022,237.7
2023-09-06T06:16:03,42.805,6.029,0.0,-0.014,-0.022,102.0,103.0,102.0,13.3,1505.2,342.9,-0.8,1.8,2471.47,13.29,0.014,180.0
2023-09-06T06:19:03,42.805,6.029,-0.006,-0.004,-0.022,104.0,102.0,102.0,13.4,1505.2,350.5,-0.8,1.8,2471.484,13.29,0.007,236.3
2023-09-06T06:22:02,42.805,6.029,-0.012,-0.015,-0.035,104.0,104.0,102.0,13.4,1505.2,327.3,-0.8,1.8,2471.452,13.29,0.019,218.7
2023-09-06T06:25:03,42.805,6.029,0.012,-0.032,-0.021,104.0,103.0,102.0,13.4,1505.2,332.2,-0.8,1.8,2471.445,13.29,0.034,159.4
2023-09-06T06:28:03,42.805,6.029,-0.004,-0.017,-0.022,104.0,104.0,102.0,13.4,1505.2,345.1,-0.8,1.8,2471.466,13.29,0.017,193.2
2023-09-06T06:31:03,42.805,6.029,0.003,-0.028,-0.019,103.0,103.0,102.0,13.3,1505.2,339.3,-0.8,1.8,2471.477,13.29,0.028,173.9
2023-09-06T06:34:03,42.805,6.029,-0.022,-0.011,-0.02,104.0,104.0,103.0,13.4,1505.2,325.2,-0.8,1.8,2471.452,13.29,0.024,243.4
2023-09-06T06:37:02,42.805,6.029,-0.015,-0.016,-0.016,104.0,103.0,101.0,13.4,1505.2,341.2,-0.8,1.8,2471.469,13.29,0.021,223.1
2023-09-06T06:40:03,42.805,6.029,-0.003,-0.005,-0.017,104.0,103.0,102.0,13.3,1505.2,345.2,-0.7,1.8,2471.44,13.29,0.005,211.0
2023-09-06T06:43:03,42.805,6.029,-0.008,-0.027,-0.049,103.0,103.0,102.0,13.4,1505.2,333.8,-0.8,1.8,2471.432,13.29,0.028,196.5
2023-09-06T06:46:03,42.805,6.029,-0.019,-0.008,-0.006,104.0,103.0,102.0,13.3,1505.2,342.7,-0.8,1.8,2471.456,13.29,0.02,247.2
2023-09-06T06:49:03,42.805,6.029,-0.012,-0.017,-0.035,104.0,103.0,102.0,13.3,1505.2,328.0,-0.8,1.8,2471.441,13.29,0.02,215.2
2023-09-06T06:52:02,42.805,6.029,-0.029,0.006,-0.023,104.0,103.0,102.0,13.4,1505.2,336.4,-0.8,1.8,2471.462,13.29,0.029,281.7
2023-09-06T06:55:03,42.805,6.029,-0.012,-0.014,-0.043,104.0,104.0,102.0,13.4,1505.2,332.5,-0.8,1.8,2471.476,13.29,0.018,220.6
2023-09-06T06:58:03,42.805,6.029,0.0,-0.012,-0.041,104.0,103.0,102.0,13.3,1505.2,333.0,-0.8,1.8,2471.435,13.29,0.012,180.0
2023-09-06T07:04:02,42.805,6.029,-0.007,-0.03,-0.013,104.0,103.0,102.0,13.4,1505.2,345.9,-0.8,1.8,2471.532,13.29,0.03,193.1
2023-09-06T07:07:02,42.805,6.029,-0.032,-0.027,-0.048,104.0,103.0,102.0,13.4,1505.2,324.3,-0.7,1.8,2471.531,13.29,0.041,229.8
2023-09-06T07:10:03,42.805,6.029,-0.025,-0.031,-0.062,103.0,104.0,101.0,13.4,1505.2,343.3,-0.8,1.8,2471.516,13.29,0.039,218.9
2023-09-06T07:13:03,42.805,6.029,-0.009,-0.015,-0.063,103.0,104.0,101.0,13.4,1505.2,331.0,-0.8,1.8,2471.492,13.29,0.017,211.0
2023-09-06T07:16:03,42.805,6.029,-0.021,-0.015,-0.042,104.0,103.0,101.0,13.3,1505.2,341.5,-0.8,1.8,2471.469,13.29,0.025,234.5
2023-09-06T07:19:03,42.805,6.029,-0.017,-0.004,-0.029,104.0,103.0,102.0,13.3,1505.2,353.0,-0.8,1.8,2471.497,13.29,0.017,256.8
2023-09-06T07:22:02,42.805,6.029,0.022,-0.017,-0.004,104.0,104.0,100.0,13.4,1505.2,330.5,-0.7,1.8,2471.49,13.29,0.027,127.7
2023-09-06T07:25:03,42.805,6.029,-0.011,-0.007,-0.018,104.0,102.0,102.0,13.3,1505.2,328.6,-0.8,1.8,2471.492,13.29,0.013,237.5
2023-09-06T07:28:03,42.805,6.029,0.003,-0.006,0.002,103.0,103.0,101.0,13.4,1505.2,341.9,-0.8,1.8,2471.478,13.29,0.006,153.4
2023-09-06T07:31:03,42.805,6.029,-0.047,-0.001,-0.03,103.0,102.0,101.0,13.3,1505.2,345.1,-0.8,1.8,2471.495,13.29,0.047,268.8
2023-09-06T07:34:03,42.805,6.029,-0.02,-0.017,-0.011,104.0,102.0,101.0,13.4,1505.2,340.2,-0.8,1.8,2471.435,13.29,0.026,229.6
2023-09-06T07:37:03,42.805,6.029,-0.015,-0.033,-0.032,103.0,103.0,101.0,13.4,1505.2,354.4,-0.8,1.8,2471.508,13.29,0.036,204.4
2023-09-06T07:40:03,42.805,6.029,-0.015,-0.036,0.013,103.0,103.0,103.0,13.4,1505.2,327.0,-0.8,1.8,2471.481,13.29,0.039,202.6
2023-09-06T07:43:03,42.805,6.029,-0.027,-0.008,-0.04,103.0,103.0,102.0,13.4,1505.2,339.7,-0.8,1.8,2471.511,13.29,0.028,253.5
2023-09-06T07:46:03,42.805,6.029,-0.012,-0.005,0.006,104.0,103.0,101.0,13.3,1505.2,336.1,-0.8,1.8,2471.501,13.29,0.013,247.4
2023-09-06T07:49:03,42.805,6.029,-0.008,-0.019,-0.011,103.0,103.0,103.0,13.4,1505.2,343.4,-0.8,1.8,2471.501,13.29,0.02,202.8
2023-09-06T07:52:03,42.805,6.029,-0.002,-0.042,-0.065,103.0,103.0,101.0,13.4,1505.2,343.7,-0.8,1.8,2471.492,13.29,0.042,182.7
2023-09-06T07:55:03,42.805,6.029,-0.008,-0.01,-0.024,104.0,103.0,101.0,13.3,1505.2,338.5,-0.8,1.8,2471.513,13.29,0.012,218.7
2023-09-06T07:58:03,42.805,6.029,-0.014,-0.013,-0.007,104.0,103.0,102.0,13.3,1505.2,336.2,-0.8,1.8,2471.511,13.29,0.019,227.1
2023-09-06T08:04:02,42.805,6.029,-0.007,-0.014,-0.019,104.0,103.0,101.0,13.3,1505.2,352.3,-0.8,1.8,2471.532,13.29,0.015,206.6
2023-09-06T08:07:03,42.805,6.029,-0.008,-0.033,-0.046,103.0,103.0,102.0,13.4,1505.2,341.2,-0.7,1.8,2471.523,13.29,0.033,193.6
2023-09-06T08:10:03,42.805,6.029,-0.03,-0.026,-0.066,104.0,103.0,102.0,13.4,1505.2,329.0,-0.8,1.8,2471.509,13.29,0.039,229.1
2023-09-06T08:13:03,42.805,6.029,-0.027,-0.008,-0.032,105.0,103.0,101.0,13.3,1505.2,336.5,-0.8,1.8,2471.502,13.29,0.028,253.5
2023-09-06T08:16:03,42.805,6.029,-0.04,-0.021,-0.042,103.0,103.0,102.0,13.4,1505.2,350.3,-0.8,1.8,2471.563,13.29,0.045,242.3
2023-09-06T08:19:03,42.805,6.029,-0.025,-0.024,-0.069,104.0,103.0,102.0,13.4,1505.2,326.0,-0.7,1.8,2471.525,13.29,0.034,226.2
2023-09-06T08:22:03,42.805,6.029,-0.019,0.0,-0.005,103.0,102.0,103.0,13.4,1505.2,340.8,-0.7,1.8,2471.5,13.29,0.019,270.0
2023-09-06T08:25:03,42.805,6.029,-0.029,-0.003,-0.004,104.0,103.0,102.0,13.4,1505.2,329.4,-0.8,1.8,2471.52,13.29,0.029,264.1
2023-09-06T08:28:03,42.805,6.029,-0.033,-0.008,-0.016,103.0,103.0,102.0,13.4,1505.2,337.8,-0.8,1.8,2471.528,13.29,0.033,256.4
2023-09-06T08:31:03,42.805,6.029,-0.035,-0.005,-0.043,103.0,102.0,103.0,13.4,1505.2,347.3,-0.7,1.9,2471.488,13.29,0.035,261.9
2023-09-06T08:34:03,42.805,6.029,-0.01,-0.019,-0.014,103.0,103.0,101.0,13.4,1505.2,327.8,-0.8,1.8,2471.488,13.29,0.021,207.8
2023-09-06T08:37:03,42.805,6.029,-0.013,-0.013,-0.036,102.0,103.0,102.0,13.3,1505.2,333.0,-0.8,1.9,2471.526,13.29,0.018,225.0
2023-09-06T08:40:03,42.805,6.029,-0.028,-0.007,-0.044,104.0,102.0,102.0,13.4,1505.2,335.2,-0.8,1.8,2471.501,13.29,0.028,256.0
2023-09-06T08:43:03,42.805,6.029,-0.027,0.0,-0.035,104.0,103.0,102.0,13.3,1505.2,328.8,-0.8,1.8,2471.537,13.29,0.026,270.0
2023-09-06T08:46:03,42.805,6.029,-0.031,0.0,0.006,103.0,103.0,101.0,13.3,1505.2,335.9,-0.8,1.8,2471.53,13.29,0.03,270.0
2023-09-06T08:49:03,42.805,6.029,-0.038,0.0,-0.027,104.0,103.0,103.0,13.3,1505.2,343.1,-0.7,1.8,2471.503,13.29,0.038,270.0
2023-09-06T08:52:03,42.805,6.029,-0.005,-0.009,-0.019,103.0,103.0,102.0,13.4,1505.2,327.5,-0.8,1.8,2471.549,13.29,0.01,209.1
2023-09-06T08:55:03,42.805,6.029,-0.043,-0.009,-0.056,104.0,103.0,102.0,13.4,1505.2,331.8,-0.8,1.8,2471.54,13.29,0.043,258.2
2023-09-06T08:58:03,42.805,6.029,-0.038,0.011,-0.056,104.0,104.0,102.0,13.3,1505.2,348.0,-0.8,1.8,2471.566,13.29,0.039,286.1
2023-09-06T09:01:03,42.805,6.029,-0.042,-0.013,-0.017,104.0,103.0,102.0,13.3,1505.2,336.6,-0.8,1.8,2471.552,13.29,0.043,252.8
2023-09-06T09:04:02,42.805,6.029,-0.029,0.011,0.004,103.0,103.0,102.0,13.4,1505.2,326.8,-0.8,1.8,2471.499,13.29,0.031,290.8
2023-09-06T09:07:03,42.805,6.029,-0.055,0.007,-0.002,104.0,102.0,102.0,13.4,1505.2,336.2,-0.8,1.8,2471.55,13.29,0.055,277.3
2023-09-06T09:10:03,42.805,6.029,-0.033,0.008,-0.08,103.0,103.0,101.0,13.4,1505.2,353.5,-0.7,1.8,2471.541,13.29,0.033,283.6
2023-09-06T09:13:03,42.805,6.029,-0.032,0.008,-0.038,102.0,103.0,102.0,13.3,1505.2,345.9,-0.8,1.8,2471.514,13.29,0.032,284.0
2023-09-06T09:16:03,42.805,6.029,-0.052,0.013,0.018,103.0,103.0,102.0,13.4,1505.2,327.0,-0.8,1.8,2471.536,13.29,0.053,284.0
2023-09-06T09:19:03,42.805,6.029,-0.026,0.01,-0.02,103.0,103.0,101.0,13.3,1505.2,339.6,-0.8,1.8,2471.528,13.29,0.027,291.0
2023-09-06T09:22:03,42.805,6.029,-0.036,0.01,-0.05,103.0,103.0,101.0,13.3,1505.2,334.3,-0.7,1.8,2471.559,13.29,0.037,285.5
2023-09-06T09:25:03,42.805,6.029,-0.032,0.035,-0.027,103.0,103.0,101.0,13.3,1505.2,351.8,-0.8,1.8,2471.549,13.29,0.047,317.6
2023-09-06T09:28:03,42.805,6.029,-0.041,0.035,-0.039,105.0,103.0,101.0,13.4,1505.2,348.4,-0.8,1.8,2471.518,13.29,0.053,310.5
2023-09-06T09:31:03,42.805,6.029,-0.065,0.017,-0.03,103.0,102.0,101.0,13.4,1505.2,330.9,-0.7,1.8,2471.54,13.29,0.067,284.7
2023-09-06T09:34:03,42.805,6.029,-0.028,-0.001,-0.002,103.0,102.0,101.0,13.4,1505.2,329.4,-0.7,1.8,2471.525,13.29,0.028,268.0
2023-09-06T09:37:03,42.805,6.029,-0.025,0.006,-0.013,102.0,102.0,101.0,13.4,1505.2,324.9,-0.8,1.8,2471.559,13.29,0.025,283.5
2023-09-06T09:40:03,42.805,6.029,-0.046,0.027,-0.041,103.0,102.0,101.0,13.3,1505.2,345.4,-0.7,1.8,2471.532,13.29,0.053,300.4
2023-09-06T09:43:03,42.805,6.029,-0.046,0.033,-0.054,103.0,101.0,102.0,13.3,1505.2,343.0,-0.8,1.8,2471.528,13.29,0.056,305.7
2023-09-06T09:46:03,42.805,6.029,-0.016,0.035,-0.02,104.0,102.0,100.0,13.4,1505.2,346.5,-0.8,1.8,2471.539,13.29,0.038,335.4
2023-09-06T09:49:03,42.805,6.029,-0.017,0.008,-0.019,103.0,102.0,101.0,13.3,1505.2,332.9,-0.8,1.8,2471.54,13.29,0.018,295.2